Location: The Stocker AstroScience Center
(25.7579°N, 80.3725°W)
Time: 07:23:04
(UTC-05:00)

ISS - All Passes

Search period start: 26 February 2017 00:00
Search period end: 08 March 2017 00:00
Orbit: 399 x 408 km, 51.6° (Epoch: 26 February)

Date Brightness Start Highest point End Pass type
(mag) Time Alt. Az. Time Alt. Az. Time Alt. Az.
26 Feb - 07:02:44 10° WSW 07:05:53 45° NW 07:09:04 10° NNE daylight
26 Feb - 15:13:00 10° NNW 15:16:09 43° NE 15:19:16 10° ESE daylight
27 Feb - 06:10:08 10° SSW 06:13:23 68° SE 06:16:40 10° NE visible
27 Feb - 14:21:03 10° N 14:23:33 20° NE 14:26:02 10° E daylight
27 Feb - 15:57:25 10° WNW 15:59:53 20° SW 16:02:22 10° S daylight
28 Feb - 05:18:10 10° S 05:20:58 26° SE 05:23:46 10° ENE visible
28 Feb - 06:55:12 10° W 06:57:23 16° NW 06:59:35 10° N daylight
28 Feb - 13:30:26 10° NNE 13:30:50 10° NE 13:31:14 10° NE daylight
28 Feb - 15:04:18 10° NW 15:07:29 50° SW 15:10:38 10° SSE daylight
01 Mar - 04:27:31 10° SE 04:28:35 11° SE 04:29:38 10° ESE visible
01 Mar - 06:01:43 10° WSW 06:04:44 34° NW 06:07:46 10° NNE visible
01 Mar - 14:11:44 10° NNW 14:14:59 59° NE 14:18:11 10° SE daylight
02 Mar - 05:08:54 10° SW 05:12:10 87° NW 05:15:28 10° NE visible
02 Mar - 13:19:35 10° NNW 13:22:23 25° NE 13:25:08 10° ESE daylight
02 Mar - 14:56:36 10° W 14:58:37 15° SW 15:00:39 10° SSW daylight
03 Mar - 04:16:41 10° SSW 04:19:41 34° SE 04:22:42 10° ENE visible
03 Mar - 05:54:31 10° WNW 05:56:12 13° NW 05:57:53 10° N visible
03 Mar - 12:28:07 10° NNE 12:29:39 13° NE 12:31:11 10° ENE daylight
03 Mar - 14:03:09 10° WNW 14:06:12 36° SW 14:09:13 10° SSE daylight
04 Mar - 03:25:20 10° SSE 03:27:15 15° SE 03:29:10 10° E night (unlit)
04 Mar - 05:00:40 10° WSW 05:03:29 26° NW 05:06:19 10° NNE visible
04 Mar - 13:10:24 10° NW 13:13:41 82° NE 13:16:56 10° SE daylight
05 Mar - 04:07:37 10° SW 04:10:51 64° NW 04:14:06 10° NE visible
05 Mar - 12:18:05 10° NNW 12:21:04 32° NE 12:24:02 10° ESE daylight
05 Mar - 13:55:57 10° W 13:57:14 12° SW 13:58:31 10° SSW daylight
06 Mar - 03:15:09 10° SSW 03:18:18 47° SE 03:21:28 10° NE night (unlit)
06 Mar - 04:54:04 10° NW 04:54:55 11° NW 04:55:46 10° NNW visible
06 Mar - 11:26:16 10° N 11:28:21 16° NE 11:30:25 10° E daylight
06 Mar - 13:01:56 10° WNW 13:04:47 27° SW 13:07:37 10° S daylight
07 Mar - 02:23:25 10° S 02:25:48 19° SE 02:28:13 10° ENE night (unlit)
07 Mar - 03:59:33 10° W 04:02:07 21° NW 04:04:42 10° N night (unlit)
07 Mar - 12:08:59 10° NW 12:12:15 73° SW 12:15:30 10° SE daylight
